{"data":{"norad_id":52933,"epoch":"2026-09-20T04:32:22.254144Z","epoch_age_seconds":41213,"freshness":"FRESH","line1":"1 52933U 22071A   26263.18914646  .00000100  00000+0  00000+0 0  9991","line2":"2 52933   0.0327 268.0005 0001119 244.7190 135.4633  1.00271460  8471","mean_motion":1.0027146,"eccentricity":0.0001119,"inclination_deg":0.0327,"raan_deg":268.0005,"arg_perigee_deg":244.719,"mean_anomaly_deg":135.4633,"bstar":0,"rev_number":847,"period_min":1436.1015587087,"perigee_km":35781.967827033,"apogee_km":35791.404314436,"semimajor_km":42164.823070735,"source":"CELESTRAK","updated_at":"2026-09-20T09:00:35.687796Z"}}